Regional Weather Roundup
Issued by NWS Goodland, KS

Home | Current Version | Previous Version | Text Only | Print | Product List | Glossary On
Versions: 1 2 3 4 5 6 7 8 9 10 11 12 13 14 15 16 17 18 19 20 21 22 23 24 25 26 27 28 29 30 31 32 33 34 35 36 37 38 39 40 41 42 43 44 45 46 47 48 49 50
000
ASUS43 KGLD 231708
RWRGLD

GOODLAND FORECAST AREA HOURLY WEATHER ROUNDUP
NATIONAL WEATHER SERVICE GOODLAND KS
1100 AM MDT THU OCT 23 2014

...OFFICIAL OBSERVATIONS...

CITY           SKY/WX    TMP DP  RH WIND       PRES   REMARKS
GOODLAND KS    SUNNY     69  46  43 S10       30.15S
HILL CITY KS   CLOUDY    58  57  97 SW6       30.13S FOG
IMPERIAL NEB   SUNNY     69  46  43 S13       30.11F
MCCOOK NEB     MOSUNNY   59  50  72 CALM      30.13S
AKRON CO       MOSUNNY   62  42  47 W8        30.16S
BURLINGTON CO  SUNNY     68  43  40 S8        30.16F
LIMON CO       SUNNY     65  34  31 W3        30.20S
$$

...UNOFFICIAL OBSERVATIONS...

CITY           SKY/WX    TMP DP  RH WIND       PRES   REMARKS
GOVE KS          N/A     60  32  34 MISG        N/A
SHARON SPRINGS   N/A     65  57  75 S5          N/A
TRENTON NEB      N/A     64  32  30 S5          N/A
KIT CARSON CO    N/A     67  47  48 CALM        N/A
YUMA CO          N/A     63  44  50 SW6         N/A
$$



USA.gov is the U.S. government's official web portal to all federal, state and local government web resources and services.